Tracking 34717 objects as of 14-Jul-2026
HD Live streaming from Space Station
objects crossing your sky now

HAISHAO 1

Track HAISHAO 1 now!
10-day predictions


NORAD ID: 62190
Int'l Code: 2024-228A
Perigee: 378.9 km
Apogee: 380.6 km
Inclination: 43.0 °
Period: 92.0 minutes
Semi major axis: 6750 km
RCS: Unknown
Launch date: December 4, 2024
Source: People's Republic of China (PRC)
Launch site: Xichang Space Center, China (XSC)
Your satellite tracking list
Your tracking list is empty




NASA's NSSDC Master Catalog

Two Line Element Set (TLE):
1 62190U 24228A   26194.98957955  .00008857  00000-0  90911-4 0  9997
2 62190  42.9776 205.0550 0001235  52.2522 307.8455 15.65208100 91786
Source of the keplerian elements: AFSPC